Flag for Canada Weather past 2 weeks in Camrose, Alberta, Canada

Now
61 °F

Passing clouds.


Feels Like: 61 °F
Forecast: 40 / 61 °F
Wind: 12 mph from Northwest

Location: Edmonton International

Current Time: Oct 23, 2014 at 3:02:00 PM

Latest Report: Oct 23, 2014 at 2:00 PM


Visibility: 15 mi

Pressure: 29.46 "Hg

Humidity: 34%

Dew point: 32 °F

Location of CamroseLocation

Historic Weather in Camrose — Graph

°F

Camrose temperature yesterday

Maximum temperature yesterday: 63 °F (at 2:00 PM)
Minimum temperature yesterday: 32 °F (at 12:00 AM)
Average temperature yesterday: 45 °F

Past Weeks' High & Low Weather Summary

 TemperatureHumidityPressure
High72 °F (Oct 20, 2:00 PM)100% (Oct 9, 5:00 AM)30.20 "Hg (Oct 9, 5:00 AM)
Low25 °F (Oct 13, 7:00 AM)26% (Oct 11, 3:00 PM)29.45 "Hg (Oct 23, 12:00 PM)
Average46 °F66%29.79 "Hg
* Reported Oct 8 1:00 PM — Oct 23 1:00 PM, Camrose, Weather by CustomWeather, © 2014

Note: Actual official high and low records may vary slightly from our data, if they occured in-between our weather recording intervals... More about our weather records

Advertising

Camrose weather history for previous 24 hours

 ConditionsComfort  
Time TempWeatherWind HumidityBarometerVisibility
1:00 PM
Oct 23
55 °FPartly sunny.14 mph44%29.46 "Hg15 mi
12:00 PM52 °FBroken clouds.5 mph50%29.45 "Hg15 mi
11:00 AM46 °FPartly sunny.7 mph57%29.46 "Hg15 mi
10:00 AM45 °FPartly sunny.3 mph71%29.46 "Hg15 mi
9:00 AM34 °FPassing clouds.2 mph87%29.46 "Hg15 mi
8:00 AM32 °FPassing clouds.3 mph87%29.47 "Hg15 mi
7:00 AM30 °FPassing clouds.6 mph80%29.48 "Hg15 mi
6:00 AM36 °FPartly cloudy.6 mph81%29.48 "Hg15 mi
5:00 AM37 °FPassing clouds.3 mph81%29.50 "Hg15 mi
4:00 AM36 °FMostly cloudy.7 mph81%29.52 "Hg15 mi
3:00 AM39 °FPartly cloudy.3 mph75%29.52 "Hg15 mi
2:00 AM37 °FPartly cloudy.6 mph75%29.55 "Hg15 mi
1:00 AM39 °FMostly cloudy.6 mph75%29.56 "Hg15 mi
12:00 AM43 °FMostly cloudy.8 mph71%29.58 "Hg15 mi
11:00 PM
Oct 22
43 °FMostly cloudy.8 mph66%29.60 "Hg15 mi
10:00 PM45 °FMostly cloudy.6 mph61%29.62 "Hg15 mi
9:00 PM50 °FMostly cloudy.10 mph50%29.61 "Hg15 mi
8:00 PM52 °FPassing clouds.10 mph47%29.62 "Hg15 mi
7:00 PM52 °FPartly sunny.12 mph47%29.64 "Hg15 mi
6:00 PM55 °FPartly sunny.10 mph38%29.63 "Hg15 mi
5:00 PM57 °FPartly sunny.13 mph33%29.63 "Hg15 mi
4:00 PM59 °FPartly sunny.13 mph34%29.62 "Hg15 mi
3:00 PM61 °FPartly sunny.14 mph31%29.63 "Hg15 mi
Weather by CustomWeather, © 2014

See weather overviewHow to use our weather pages